Home   Weather   Grieskirchen   Past weeks

Flag for Austria Past Weather in Grieskirchen, Upper Austria, Austria — Yesterday and Last 2 Weeks

48 °F

Broken clouds.

Feels Like: 45 °F
Forecast: 35 / 51 °F
Wind: 7 mph from West

Location: Linz / Hoersching-Flughafen

Current Time: Oct 21, 2016 at 6:40:26 PM

Latest Report: Oct 21, 2016 at 5:50 PM

Visibility: N/A

Pressure: 29.98 "Hg

Humidity: 76%

Dew Point: 41 °F

Location of GrieskirchenLocation

Past Weather in Grieskirchen — Graph


Grieskirchen Temperature Yesterday

Maximum temperature yesterday: 50 °F (at 3:20 PM)
Minimum temperature yesterday: 39 °F (at 11:20 PM)
Average temperature yesterday: 46 °F

High & Low Weather Summary for the Past Weeks

High66 °F (Oct 16, 2:20 PM)100% (Oct 7, 9:50 PM)30.30 "Hg (Oct 7, 9:50 PM)
Low36 °F (Oct 10, 4:20 AM)54% (Oct 9, 3:20 PM)29.74 "Hg (Oct 15, 4:20 AM)
Average48 °F88%30.07 "Hg
* Reported Oct 6 5:20 PM — Oct 21 5:20 PM, Grieskirchen, Weather by CustomWeather, © 2016

Note: Actual official high and low records may vary slightly from our data, if they occured in-between our weather recording intervals... More about our weather records


Grieskirchen Weather History for the Previous 24 Hours

Scroll right to see more
Time TempWeatherWind HumidityBarometerVisibility
5:20 PM
Fri, Oct 21
48 °FPartly sunny.8 mph76%29.95 "HgN/A
4:50 PM48 °FPartly sunny.8 mph76%29.95 "HgN/A
4:20 PM50 °FBroken clouds.9 mph71%29.95 "HgN/A
3:50 PM50 °FBroken clouds.12 mph71%29.95 "HgN/A
3:20 PM50 °FBroken clouds.12 mph71%29.95 "HgN/A
2:50 PM50 °FPartly sunny.9 mph76%29.95 "HgN/A
2:20 PM50 °FBroken clouds.9 mph71%29.95 "HgN/A
1:50 PM48 °FBroken clouds.8 mph82%29.95 "HgN/A
1:20 PM48 °FBroken clouds.7 mph76%29.95 "HgN/A
12:50 PM46 °FPartly sunny.5 mph82%29.95 "HgN/A
12:20 PM45 °FPartly sunny.2 mph87%29.95 "HgN/A
11:50 AM45 °FPartly sunny.1 mph87%29.95 "HgN/A
11:20 AM43 °FBroken clouds.3 mph93%29.95 "HgN/A
10:50 AM41 °FPartly sunny.3 mph100%29.95 "Hg4 mi
10:20 AM41 °FPartly sunny.3 mph100%29.95 "Hg4 mi
9:50 AM41 °FFog.3 mph100%29.95 "Hg3 mi
9:20 AM39 °FFog.2 mph100%29.98 "Hg3 mi
8:50 AM37 °FFog.2 mph100%29.98 "Hg1 mi
8:20 AM37 °FFog.2 mph100%29.95 "Hg1 mi
7:50 AM37 °FFog.5 mph100%29.95 "Hg1 mi
7:20 AM37 °FFog.3 mph100%29.95 "Hg1 mi
6:50 AM37 °FFog.3 mph100%29.95 "Hg1 mi
6:20 AM37 °FFog.6 mph100%29.95 "Hg1 mi
5:50 AM36 °FFog.8 mph100%29.95 "Hg0 mi
5:20 AM36 °FFog.6 mph100%29.95 "Hg0 mi
4:50 AM36 °FFog.6 mph100%29.95 "Hg0 mi
4:20 AM36 °FFog.3 mph100%29.95 "Hg0 mi
3:50 AM36 °FFog.2 mph100%29.98 "Hg1 mi
3:20 AM36 °FFog.3 mph100%29.98 "Hg0 mi
2:50 AM36 °FFog.2 mph100%29.95 "Hg0 mi
2:20 AM37 °FFog.2 mph100%29.98 "Hg1 mi
1:50 AM37 °FFog.2 mph100%29.98 "Hg0 mi
1:20 AM39 °FFog.2 mph100%29.98 "Hg0 mi
12:50 AM39 °FFog.3 mph100%29.98 "Hg0 mi
11:50 PM
Thu, Oct 20
41 °FFog.2 mph100%29.98 "Hg0 mi
11:20 PM39 °FFog.2 mph100%29.95 "Hg0 mi
10:50 PM41 °FDrizzle. Fog.5 mph100%29.95 "Hg0 mi
10:20 PM41 °FFog.5 mph100%29.95 "Hg2 mi
9:50 PM41 °FQuite cool.5 mph100%29.95 "Hg5 mi
9:20 PM43 °FPassing clouds.5 mph93%29.95 "HgN/A
8:50 PM43 °FQuite cool.5 mph93%29.95 "Hg6 mi
8:20 PM43 °FQuite cool.5 mph100%29.98 "HgN/A
7:50 PM43 °FPassing clouds.6 mph100%29.98 "HgN/A
7:20 PM45 °FPassing clouds.5 mph93%29.98 "HgN/A
6:50 PM45 °FPassing clouds.8 mph93%29.98 "HgN/A
6:20 PM46 °FPassing clouds.8 mph93%29.98 "HgN/A
Weather by CustomWeather, © 2016

See weather overviewHow to use our weather pages